Starlink 4208

operational
NORAD ID: 52844 Int'l Des: 2022-062 Owner: SPXS Country: US Constellation: starlink
LEOCIRCULAR

关于 Starlink 4208

正在加载描述...

实时位置

正在加载3D地球...

即将过境

高度历史

Altitude vs Time

uPlot chart will show altitude changes over time

两行轨道根数

1 52844U 22062Q 26034.22431222 .00001194 00000-0 93129-4 0 9991
2 52844 53.2163 188.8409 0001279 94.0095 266.1044 15.08830677200582
Epoch: Feb 3, 2026 • Age: 8 hours

当前状态

高度 557.5 km
速度 7.58 km/s
星下点 -48.93°S, 159.77°E
发射日期 Jun 17, 2022
运行时间 3.6 years
类型 internet

技术详情

分类 Payload
质量 297.00 kg
干质量 275.00 kg
总质量 297.00 kg
长度 0.20 m
直径 2.80 m
跨度 9.00 m
形状 Box + pan
制造商 SPXS
平台类型 Starlink
阶段状态 In Orbit
所有者/国家 SPXS/US

大型星座

Loading constellations...